Flag for Israel Weather past 2 weeks in Kfar Saba, Israel

Now
64 °F

Passing clouds.


Feels Like: 64 °F
Forecast: 56 / 69 °F
Wind: 7 mph from Southwest

Location: Dov Airport

Current Time: Apr 1, 2015 at 9:44:59 PM

Latest Report: Apr 1, 2015 at 8:50 PM


Visibility: N/A

Pressure: 29.98 "Hg

Humidity: 78%

Dew point: 57 °F

Location of Kfar SabaLocation

Historic Weather in Kfar Saba — Graph

°F

Kfar Saba temperature yesterday

Maximum temperature yesterday: 68 °F (at 11:50 AM)
Minimum temperature yesterday: 59 °F (at 5:50 AM)
Average temperature yesterday: 66 °F

Past Weeks' High & Low Weather Summary

 TemperatureHumidityPressure
High91 °F (Mar 27, 3:50 PM)94% (Mar 21, 4:01 PM)30.15 "Hg (Mar 21, 4:01 PM)
Low52 °F (Mar 18, 5:50 AM)16% (Mar 27, 3:50 PM)29.62 "Hg (Mar 28, 5:50 AM)
Average65 °F62%29.95 "Hg
* Reported Mar 17 6:50 PM — Apr 1 7:50 PM, Kfar Saba, Weather by CustomWeather, © 2015

Note: Actual official high and low records may vary slightly from our data, if they occured in-between our weather recording intervals... More about our weather records

Advertising

Kfar Saba weather history for previous 24 hours

 ConditionsComfort  
Time TempWeatherWind HumidityBarometerVisibility
7:50 PM
Wed, Apr 1
64 °FPassing clouds.8 mph73%29.98 "HgN/A
6:50 PM64 °FBroken clouds.10 mph78%29.98 "HgN/A
5:50 PM66 °FPartly sunny.13 mph73%29.95 "HgN/A
4:50 PM68 °FScattered clouds.14 mph69%29.95 "HgN/A
3:50 PM66 °FScattered clouds.12 mph73%29.95 "HgN/A
2:50 PM68 °FScattered clouds.12 mph69%29.95 "HgN/A
1:50 PM66 °FScattered clouds.12 mph68%29.95 "HgN/A
12:50 PM66 °FScattered clouds.12 mph73%29.95 "HgN/A
11:50 AM66 °FScattered clouds.10 mph73%29.92 "HgN/A
10:50 AM64 °FScattered clouds.13 mph83%29.92 "HgN/A
9:50 AM64 °FPartly sunny.16 mph83%29.92 "HgN/A
8:50 AM61 °FPartly sunny.14 mph88%29.89 "HgN/A
7:50 AM61 °FPartly sunny.17 mph88%29.86 "HgN/A
6:50 AM61 °FPassing clouds.16 mph88%29.83 "HgN/A
5:50 AM63 °FPassing clouds.18 mph77%29.80 "HgN/A
10:50 PM
Tue, Mar 31
66 °FClear.6 mph64%29.83 "Hg10 mi
9:50 PM66 °FClear.3 mph43%29.80 "Hg10 mi
Weather by CustomWeather, © 2015

See weather overviewHow to use our weather pages